CST,Max TemperatureF,Mean TemperatureF,Min TemperatureF,Max Dew PointF,MeanDew PointF,Min DewpointF,Max Humidity, Mean Humidity, Min Humidity, Max Sea Level PressureIn, Mean Sea Level PressureIn, Min Sea Level PressureIn, Max VisibilityMiles, Mean VisibilityMiles, Min VisibilityMiles, Max Wind SpeedMPH, Mean Wind SpeedMPH, Max Gust SpeedMPH,PrecipitationIn, CloudCover, Events, WindDirDegrees
2012-11-1,35,30,23,27,21,16,86,68,55,29.98,29.86,29.79,10,10,2,21,12,30,0.00,5,Snow,316
2012-11-2,33,25,17,19,16,12,93,74,44,30.19,30.10,29.98,10,10,10,18,10,26,0.00,1,,333
2012-11-3,32,26,21,23,20,18,86,77,64,30.24,30.22,30.19,10,10,10,6,2,,0.00,8,,321
2012-11-4,30,24,17,19,18,14,93,76,64,30.25,30.23,30.21,10,10,10,8,3,,0.00,7,,349
2012-11-5,30,27,24,25,20,18,86,74,64,30.25,30.14,29.91,10,10,2,7,3,,0.00,8,,137
2012-11-6,33,32,30,30,29,25,93,88,80,29.90,29.79,29.71,10,1,0,9,4,17,0.19,8,Fog-Rain-Snow,153
2012-11-7,35,34,32,32,30,28,93,86,81,30.04,29.99,29.89,10,5,0,6,0,,0.00,8,Fog,233
2012-11-8,37,35,33,34,31,28,93,83,75,30.05,29.95,29.85,10,9,3,13,6,21,0.00,8,Rain,215
2012-11-9,35,28,21,27,21,16,86,72,52,30.18,30.14,30.06,10,10,7,13,8,17,0.00,3,,18
2012-11-10,39,31,23,36,28,16,93,86,74,30.16,29.87,29.57,10,4,0,21,13,28,0.16,8,Fog-Rain-Snow,62
2012-11-11,48,34,21,46,34,16,93,87,80,29.67,29.56,29.48,10,6,0,15,8,24,0.28,8,Fog-Rain-Snow-Thunderstorm,248
2012-11-12,24,20,17,18,13,9,86,74,58,30.04,29.79,29.67,10,8,2,12,7,22,0.00,8,Snow,250
2012-11-13,28,24,19,21,17,14,93,77,64,30.25,30.19,30.05,10,10,5,12,6,20,0.00,6,,222
2012-11-14,33,28,24,28,25,18,93,82,69,30.25,30.19,30.10,10,9,4,9,2,,0.00,6,,167
2012-11-15,39,29,17,30,19,9,93,68,35,30.39,30.16,30.03,10,7,1,18,6,26,0.00,1,,276
2012-11-16,32,21,10,25,16,7,93,77,64,30.47,30.40,30.32,10,10,10,9,4,,0.00,2,,134
2012-11-17,41,34,28,34,30,25,93,80,70,30.32,30.26,30.22,10,7,2,12,6,16,0.00,4,,163
2012-11-18,41,38,35,36,31,28,93,76,61,30.25,30.16,30.10,10,7,2,9,5,16,0.19,4,Rain,150
2012-11-19,46,40,35,34,31,28,93,74,53,30.11,30.04,30.00,10,10,7,9,4,,0.01,3,Rain,189
2012-11-20,42,35,28,30,28,25,93,84,57,30.11,30.06,30.01,10,5,0,15,6,20,0.00,4,Fog,265
2012-11-21,42,35,28,36,30,25,93,85,70,30.00,29.87,29.70,10,5,0,6,2,,0.00,3,Fog,180
2012-11-22,51,38,24,39,33,21,93,79,58,29.69,29.56,29.50,10,7,0,21,6,32,0.15,3,Rain-Snow,267
2012-11-23,24,17,10,21,10,5,86,76,68,30.15,29.95,29.59,10,3,0,24,17,39,0.05,8,Snow,314
2012-11-24,19,11,3,16,8,0,86,79,67,30.15,29.98,29.70,10,6,1,10,5,17,0.08,7,Snow,219
2012-11-25,19,12,6,16,10,0,86,76,58,29.96,29.76,29.65,10,8,1,15,8,23,0.01,7,Snow,293
2012-11-26,12,9,6,3,1,0,79,74,62,30.18,30.12,29.98,10,8,2,13,9,21,0.00,7,Snow,297
2012-11-27,24,17,8,16,9,3,86,77,67,30.11,30.00,29.93,10,8,2,12,5,21,0.00,6,Snow,258
2012-11-28,21,12,3,18,4,-2,93,75,62,30.14,30.06,29.97,10,9,4,12,6,16,0.00,5,Snow,258
2012-11-29,21,14,8,18,4,0,86,74,62,30.26,30.17,30.03,10,10,2,14,8,,0.00,6,Snow,4
2012-11-30,28,19,10,27,17,7,93,83,69,30.26,30.19,30.07,10,7,1,12,8,21,0.00,8,Snow,91